Regional Weather Roundup
Issued by NWS

Home | Current Version | Previous Version | Graphics & Text | Print | Product List | Glossary On
Versions: 1 2 3 4 5 6 7 8 9 10 11 12 13 14 15 16 17 18 19 20 21 22 23 24 25 26 27 28 29 30 31 32 33 34 35 36 37 38 39 40 41 42 43 44 45 46 47 48 49 50
000
ASUS43 KBIS 232002
RWRND

NORTH DAKOTA REGIONAL WEATHER ROUNDUP
NATIONAL WEATHER SERVICE BISMARCK ND
200 PM CST MON JAN 23 2017

NOTE: "FAIR" INDICATES FEW OR NO CLOUDS BELOW 12,000 FEET WITH NO
SIGNIFICANT WEATHER AND/OR OBSTRUCTIONS TO VISIBILITY.


NDZ001>003-009>011-017-232100-
NORTHWEST NORTH DAKOTA

CITY           SKY/WX    TMP DP  RH WIND       PRES   REMARKS
WILLISTON      CLOUDY    25  20  81 N7        29.77F WCI  17
MINOT          CLOUDY    26  20  77 NW10      29.75F WCI  16
$$

NDZ018>021-031>035-040>046-232100-
SOUTHWEST NORTH DAKOTA

CITY           SKY/WX    TMP DP  RH WIND       PRES   REMARKS
BISMARCK       CLOUDY    32  23  69 SW7       29.78S
DICKINSON      CLOUDY    24  20  84 E5        29.70F WCI  18
GARRISON         N/A     27  22  81 N13       29.75F WCI  16
HETTINGER ARPT FOG       23  22  96 E5        29.72S VSB 1/2 WCI  17
$$

NDZ004>008-012>016-024-026-027-054-232100-
NORTHEAST NORTH DAKOTA

CITY           SKY/WX    TMP DP  RH WIND       PRES   REMARKS
GRAND FORKS    CLOUDY    32  23  69 W9        29.78S
GRND FRKS AFB  CLOUDY    31  23  71 W15       29.78S
DEVILS LAKE    CLOUDY    26  22  84 W18       29.75S WCI  13
$$

NDZ022-023-025-028>030-036>039-047>053-232100-
SOUTHEAST NORTH DAKOTA

CITY           SKY/WX    TMP DP  RH WIND       PRES   REMARKS
FARGO          CLOUDY    35  26  69 NW7       29.79F
JAMESTOWN      CLOUDY    29  23  78 W8        29.76F
$$





USA.gov is the U.S. government's official web portal to all federal, state and local government web resources and services.